#timestamp,LO_Frequency,Hit,StdDev 
1584468015.7,286047001.4,N
1584468035.5,286047001.9,N
1584468055.4,286047002.0,Y
1584468075.2,286047002.7,P
1584468095.1,286047000.7,N
1584468096.0,286047000.7,N
1584468115.8,286046998.5,N
1584468135.6,286046999.0,N
1584468155.5,286046999.0,N
1584468175.3,286047001.9,N
1584468195.2,286047001.9,N
1584468215.9,286047000.8,N
1584468235.7,286047000.3,N
1584468255.6,286047000.6,N
1584468275.4,286047001.2,N
1584468295.2,286047002.3,N
1584468315.1,286046998.2,N
1584468316.0,286046998.2,N
1584468335.8,286046998.6,N
1584468355.7,286046998.9,N
1584468375.5,286046996.7,N
1584468395.4,286046997.0,N
1584468415.2,286046997.6,N
1584468435.0,286046997.7,N
1584468435.9,286046997.7,N
1584468455.8,286046998.0,N
1584468475.6,286046997.4,N
1584468495.4,286046995.0,N
1584468515.3,286046995.4,N
1584468535.1,286046995.5,N
1584468555.9,286046997.2,N
1584468575.7,286046999.5,N
1584468595.5,286046998.3,N
1584468615.4,286046996.5,N
1584468635.2,286046998.1,N
1584468655.1,286046999.7,N
1584468656.0,286046999.7,N
1584468675.8,286047001.4,N
1584468695.6,286047001.4,N
1584468715.5,286046999.8,N
1584468735.3,286047000.9,N
1584468755.1,286046998.5,N
1584468775.9,286046998.9,N
1584468795.7,286046999.4,N
1584468815.6,286047000.5,N
1584468835.4,286046999.9,N
1584468855.2,286046999.7,N
1584468875.1,286046998.4,N
1584468876.0,286046998.4,N
1584468895.8,286047000.0,N
1584468915.7,286047002.4,N
1584468935.5,286047003.9,N
1584468955.3,286047004.2,N
1584468975.2,286047004.1,N
1584468995.0,286047001.6,N
1584468995.9,286047001.6,N
1584469015.8,286047002.5,N
1584469035.6,286047001.0,N
1584469055.4,286047000.6,N
1584469075.3,286047001.2,N
1584469095.1,286046998.4,N
1584469115.8,286047001.0,N
1584469135.7,286046999.1,N
1584469155.5,286046996.7,N
1584469175.4,286046997.4,N
1584469195.2,286046996.7,N
1584469215.0,286046999.6,N
1584469215.9,286046999.6,N
1584469235.8,286046998.1,N
1584469255.6,286046998.3,N
1584469275.5,286047000.7,N
1584469295.3,286046998.3,N
1584469315.1,286047000.9,N
1584469335.9,286046998.6,N
1584469355.7,286046996.7,N
1584469375.5,286046998.3,N
1584469395.4,286047001.0,N
1584469415.2,286047001.2,N
1584469435.1,286046998.6,N
1584469436.0,286046998.6,N
1584469455.8,286046999.3,N
1584469475.6,286046997.3,N
1584469495.5,286046995.2,N
1584469515.3,286046998.0,N
1584469535.2,286046995.2,N
1584469555.9,286046996.2,N
1584469575.7,286046996.1,N
1584469595.6,286046993.7,Y
1584469615.4,286046997.7,P
1584469635.2,286046996.7,P
1584469655.1,286046997.3,P
1584469656.0,286046997.3,Y
1584469675.8,286047001.1,P
1584469695.7,286046999.2,N
1584469715.5,286046999.5,N
1584469735.4,286046995.4,Y
1584469755.2,286046996.9,P
1584469775.0,286046997.4,N
1584469775.9,286046997.4,N
1584469795.8,286046997.7,N
1584469815.6,286046995.4,Y
1584469835.4,286046998.9,P
1584469855.3,286047000.9,N
1584469875.1,286046998.4,N
1584469895.9,286046996.9,N
1584469915.7,286046997.5,N
1584469935.5,286046995.6,Y
1584469955.4,286046998.9,P
1584469975.2,286046996.7,P
1584469995.1,286046997.3,N
1584469996.0,286046997.3,Y
1584470015.8,286047000.7,P
1584470035.6,286047000.3,N
1584470055.5,286047000.2,N
1584470075.3,286047000.4,N
1584470095.2,286047000.8,N
1584470115.9,286047000.6,N
1584470135.7,286047000.5,N
1584470155.6,286046999.7,N
1584470175.4,286046999.9,N
1584470195.3,286047000.4,N
1584470215.1,286047001.0,N
1584470216.0,286047001.0,N
1584470235.8,286046998.4,N
1584470255.7,286047000.8,N
1584470275.5,286046998.7,N
1584470295.3,286046999.4,N
1584470315.2,286046998.3,N
1584470335.0,286046999.3,N
1584470335.9,286046999.3,N
1584470355.8,286047000.1,N
1584470375.6,286046996.7,Y
1584470395.4,286046996.8,P
1584470415.3,286046997.5,N
1584470435.1,286046997.3,N
1584470455.9,286046995.2,Y
1584470475.7,286046999.0,P
1584470495.5,286047001.1,N
1584470515.4,286047000.8,N
1584470535.2,286047000.7,N
1584470555.1,286047000.8,N
1584470556.0,286047000.8,N
1584470575.8,286047001.2,N
1584470595.6,286046999.3,N
1584470615.5,286046999.1,N
1584470635.3,286046998.4,N
1584470655.1,286046998.6,N
1584470675.9,286046998.3,N
1584470695.7,286046999.0,N
1584470715.6,286046999.1,N
1584470735.4,286046998.6,N
1584470755.2,286046998.6,N
1584470775.1,286046999.0,N
1584470776.0,286046999.0,N
1584470795.8,286046999.5,N
1584470815.7,286046997.3,N
1584470835.5,286046999.3,N
1584470855.3,286047000.6,N
1584470875.2,286047003.1,N
1584470895.0,286047003.5,N
1584470895.9,286047003.5,N
1584470915.7,286047003.9,N
1584470935.6,286047004.1,N
1584470955.4,286047001.7,N
1584470975.3,286046999.7,N
1584470995.1,286047002.3,N
1584471015.8,286047004.2,N
1584471035.7,286047004.8,N
1584471055.5,286047003.9,N
1584471075.4,286047005.9,N
1584471095.2,286047003.0,N
1584471115.0,286047005.8,N
1584471115.9,286047005.8,N
1584471135.8,286047007.1,N
1584471155.6,286047007.2,N
1584471175.5,286047006.0,N
1584471195.3,286047004.2,N
1584471215.1,286047004.1,N
1584471235.9,286047005.9,N
1584471255.7,286047004.2,N
1584471275.5,286047004.9,N
1584471295.4,286047005.8,N
1584471315.2,286047005.2,N
1584471335.1,286047003.0,N
1584471336.0,286047003.0,N
1584471355.8,286047004.6,N
1584471375.6,286047007.4,Y
1584471395.5,286047001.4,P
1584471415.3,286047004.0,P
1584471435.2,286047002.6,N
1584471455.9,286046998.7,N
1584471475.7,286047000.7,N
1584471495.6,286047001.8,N
1584471515.4,286047001.5,N
1584471535.2,286047004.3,N
1584471555.1,286047002.5,N
1584471556.0,286047002.5,N
1584471575.8,286047004.1,N
1584471595.7,286047002.9,N
